Location: *
(51.5000°N, 0.1100°W)
Time: 01:59:11
(UTC+00:00)

MSX - Pass Details

Date: 09 August 2024
Orbit: 895 x 904 km, 99.0° (Epoch: 09 September)

Event Time Altitude Azimuth Distance (km) Brightness Sun altitude
Rises 00:17:39 0° 28° (NNE) 3,544 8.0 -22.7°
Reaches altitude 10° 00:21:13 10° 50° (NE) 2,596 6.8 -22.7°
Maximum altitude 00:24:32 15° 85° (E) 2,223 6.0 -22.6°
Enters shadow 00:27:30 11° 118° (ESE) 2,523 5.9 -22.6°
